Sparta, TN

12:02 AM CST on November 22, 2019 (GMT -0600)
Upper Cumberland Regional

Weather History for KSRB - October, 2019

Change the Weather History Date:

Monday, October 21, 2019

  Actual Average (KCSV) Record (KCSV)
Temperature  
Mean Temperature 62 °F -  
Max Temperature 75 °F 65 °F 82 °F (1963)
Min Temperature 48 °F 43 °F 24 °F (1987)
Degree Days  
Heating Degree Days 4    
Growing Degree Days 12 (Base 50)    
Moisture  
Dew Point 58 °F    
Average Humidity 87    
Maximum Humidity 100    
Minimum Humidity 57    
Precipitation  
Precipitation 0.87 in - - ()
Sea Level Pressure  
Sea Level Pressure 29.89 in    
Wind  
Wind Speed 5 mph ()    
Max Wind Speed 20 mph    
Max Gust Speed 29 mph    
Visibility 7.7 miles    
Events Fog    
Averages and records for this station are not official NWS values.
T = Trace of Precipitation, MM = Missing Value Source: Averaged Metar Reports

Daily Weather History Graph

Daily Weather History Graph

Search for Another Location

Airport or City:

Astronomy

Oct. 21, 2019 Rise Set
Actual Time 6:54 AM CDT 5:58 PM CDT
Civil Twilight 6:28 AM CDT 6:24 PM CDT
Nautical Twilight 5:58 AM CDT 6:54 PM CDT
Astronomical Twilight 5:28 AM CDT 7:24 PM CDT
Moon No Moon Rise 2:05 PM CDT (10/21)
Length of Visible Light 11h 56m
Length of Day
11h 04m
Waning Gibbous, 48% of the Moon is Illuminated
Oct 21
Waning Gibbous
Oct 27
New
Nov 4
First Quarter
Nov 12
Full
Nov 19
Last Quarter

Hourly Weather History & Observations

Time (CDT) Temp. Dew Point Humidity Pressure Visibility Wind Dir Wind Speed Gust Speed Precip Events Conditions
12:15 AM 50.0 °F 50.0 °F 100% 29.94 in 8.0 mi Calm Calm - N/A   Partly Cloudy
12:35 AM 50.0 °F 50.0 °F 100% 29.93 in 3.0 mi Calm Calm - N/A   Partly Cloudy
12:55 AM 48.2 °F 48.2 °F 100% 29.94 in 0.5 mi Calm Calm - N/A Fog Fog
1:15 AM 50.0 °F 48.2 °F 94% 29.93 in 0.5 mi Calm Calm - N/A Fog Fog
1:35 AM 50.0 °F 50.0 °F 100% 29.93 in 8.0 mi South 4.6 mph - N/A   Partly Cloudy
1:55 AM 57.2 °F 57.2 °F 100% 29.92 in 10.0 mi SSE 3.5 mph - N/A   Partly Cloudy
2:15 AM 57.2 °F 55.4 °F 94% 29.91 in 10.0 mi SSE 4.6 mph - N/A   Scattered Clouds
2:35 AM 57.2 °F 55.4 °F 94% 29.90 in 10.0 mi Calm Calm - N/A   Mostly Cloudy
2:55 AM 57.2 °F 55.4 °F 94% 29.89 in 10.0 mi South 3.5 mph - N/A   Mostly Cloudy
3:15 AM 55.4 °F 55.4 °F 100% 29.88 in 10.0 mi South 3.5 mph - N/A   Mostly Cloudy
3:35 AM 57.2 °F 55.4 °F 94% 29.88 in 10.0 mi SE 3.5 mph - N/A   Mostly Cloudy
3:55 AM 57.2 °F 55.4 °F 94% 29.87 in 10.0 mi Calm Calm - N/A   Mostly Cloudy
4:15 AM 57.2 °F 55.4 °F 94% 29.88 in 10.0 mi South 3.5 mph - N/A   Mostly Cloudy
4:35 AM 59.0 °F 57.2 °F 94% 29.89 in 10.0 mi SSE 4.6 mph - N/A   Mostly Cloudy
4:55 AM 57.2 °F 55.4 °F 94% 29.89 in 10.0 mi SSE 4.6 mph - N/A   Mostly Cloudy
5:15 AM 59.0 °F 57.2 °F 94% 29.88 in 10.0 mi SSE 5.8 mph - N/A   Overcast
5:35 AM 60.8 °F 57.2 °F 88% 29.89 in 10.0 mi SSE 4.6 mph - N/A   Overcast
5:55 AM 60.8 °F 57.2 °F 88% 29.88 in 10.0 mi SSE 5.8 mph - N/A   Overcast
6:15 AM 62.6 °F 57.2 °F 82% 29.89 in 10.0 mi South 5.8 mph - N/A   Overcast
6:35 AM 62.6 °F 57.2 °F 82% 29.89 in 8.0 mi South 8.1 mph - N/A   Overcast
6:55 AM 60.8 °F 57.2 °F 88% 29.90 in 7.0 mi South 6.9 mph - N/A   Overcast
7:15 AM 62.6 °F 59.0 °F 88% 29.88 in 7.0 mi SSE 9.2 mph - N/A   Overcast
7:35 AM 62.6 °F 59.0 °F 88% 29.88 in 10.0 mi South 10.4 mph - N/A   Partly Cloudy
7:55 AM 62.6 °F 59.0 °F 88% 29.88 in 10.0 mi SSE 10.4 mph 17.3 mph N/A   Clear
8:15 AM 64.4 °F 59.0 °F 83% 29.88 in 10.0 mi South 10.4 mph - N/A   Clear
8:35 AM 66.2 °F 59.0 °F 78% 29.88 in 10.0 mi Variable 8.1 mph 17.3 mph N/A   Clear
8:55 AM 66.2 °F 59.0 °F 78% 29.88 in 10.0 mi SSE 15.0 mph - N/A   Clear
9:15 AM 68.0 °F 59.0 °F 73% 29.88 in 10.0 mi South 13.8 mph - N/A   Clear
9:35 AM 69.8 °F 59.0 °F 68% 29.87 in 10.0 mi South 12.7 mph 20.7 mph N/A   Clear
9:55 AM 69.8 °F 59.0 °F 68% 29.87 in 10.0 mi South 13.8 mph 21.9 mph N/A   Clear
10:15 AM 69.8 °F 59.0 °F 68% 29.87 in 10.0 mi SSE 15.0 mph - N/A   Clear
10:35 AM 71.6 °F 59.0 °F 64% 29.89 in 10.0 mi South 16.1 mph 25.3 mph N/A   Clear
10:55 AM 73.4 °F 59.0 °F 61% 29.89 in 10.0 mi South 11.5 mph 23.0 mph N/A   Clear
11:15 AM 75.2 °F 60.8 °F 61% 29.90 in 10.0 mi SSW 16.1 mph - N/A   Clear
11:35 AM 75.2 °F 59.0 °F 57% 29.90 in 10.0 mi SSW 10.4 mph - N/A   Scattered Clouds
11:55 AM 75.2 °F 59.0 °F 57% 29.91 in 10.0 mi SSW 16.1 mph 21.9 mph N/A   Mostly Cloudy
12:15 PM 73.4 °F 59.0 °F 61% 29.90 in 10.0 mi SSW 11.5 mph 17.3 mph N/A   Overcast
12:35 PM 73.4 °F 59.0 °F 61% 29.90 in 10.0 mi SSW 11.5 mph 20.7 mph N/A   Mostly Cloudy
12:55 PM 73.4 °F 60.8 °F 65% 29.89 in 10.0 mi SSW 9.2 mph 17.3 mph N/A   Mostly Cloudy
1:15 PM 73.4 °F 59.0 °F 61% 29.87 in 10.0 mi SSW 12.7 mph 20.7 mph N/A   Mostly Cloudy
1:35 PM 73.4 °F 59.0 °F 61% 29.87 in 10.0 mi SSW 13.8 mph 24.2 mph N/A   Overcast
1:55 PM 71.6 °F 59.0 °F 64% 29.87 in 8.0 mi SSW 19.6 mph 28.8 mph N/A   Overcast
2:15 PM 66.2 °F 62.6 °F 88% 29.88 in 4.0 mi SSW 11.5 mph 19.6 mph N/A   Haze
2:35 PM 66.2 °F 62.6 °F 88% 29.88 in 4.0 mi SW 10.4 mph - N/A   Overcast
2:55 PM 66.2 °F 64.4 °F 94% 29.87 in 5.0 mi South 9.2 mph 15.0 mph 0.08 in   Mostly Cloudy
3:15 PM 66.2 °F 64.4 °F 94% 29.87 in 9.0 mi South 6.9 mph - N/A   Mostly Cloudy
3:35 PM 66.2 °F 62.6 °F 88% 29.87 in 4.0 mi South 5.8 mph - N/A   Overcast
3:55 PM 62.6 °F 59.0 °F 88% 29.89 in 2.5 mi WNW 5.8 mph 16.1 mph 0.09 in   Overcast
4:15 PM 60.8 °F 59.0 °F 94% 29.89 in 2.0 mi SSW 3.5 mph - N/A   Mostly Cloudy
4:35 PM 60.8 °F 59.0 °F 94% 29.89 in 2.5 mi South 5.8 mph - N/A   Overcast
4:55 PM 60.8 °F 59.0 °F 94% 29.89 in 3.0 mi SSE 4.6 mph - 0.26 in   Mostly Cloudy
5:15 PM 60.8 °F 59.0 °F 94% 29.89 in 4.0 mi SSE 8.1 mph - N/A   Overcast
5:35 PM 60.8 °F 59.0 °F 94% 29.88 in 6.0 mi South 6.9 mph 12.7 mph N/A   Overcast
5:55 PM 60.8 °F 59.0 °F 94% 29.88 in 4.0 mi SSE 8.1 mph - 0.13 in   Overcast
6:15 PM 60.8 °F 59.0 °F 94% 29.88 in 7.0 mi South 5.8 mph - N/A   Overcast
6:35 PM 60.8 °F 59.0 °F 94% 29.87 in 6.0 mi SSE 8.1 mph - N/A   Overcast
6:55 PM 60.8 °F 59.0 °F 94% 29.87 in 7.0 mi SSE 6.9 mph - 0.06 in   Overcast
7:15 PM 60.8 °F 59.0 °F 94% 29.86 in 7.0 mi SSE 5.8 mph - N/A   Overcast
7:55 PM 60.8 °F 60.8 °F 100% 29.87 in 10.0 mi SSW 4.6 mph - 0.03 in   Overcast
8:15 PM 60.8 °F 60.8 °F 100% 29.87 in 10.0 mi South 4.6 mph - N/A   Overcast
8:35 PM 60.8 °F 60.8 °F 100% 29.86 in 10.0 mi Calm Calm - N/A   Overcast
8:55 PM 62.6 °F 60.8 °F 94% 29.88 in 10.0 mi Calm Calm - N/A   Overcast
9:15 PM 60.8 °F 60.8 °F 100% 29.87 in 10.0 mi South 3.5 mph - N/A   Overcast
9:35 PM 62.6 °F 60.8 °F 94% 29.87 in 10.0 mi SSE 6.9 mph - N/A   Overcast
9:55 PM 62.6 °F 60.8 °F 94% 29.87 in 10.0 mi South 4.6 mph - N/A   Mostly Cloudy
10:15 PM 62.6 °F 60.8 °F 94% 29.88 in 2.0 mi South 5.8 mph - N/A   Overcast
10:55 PM 62.6 °F 60.8 °F 94% 29.88 in 4.0 mi West 4.6 mph - 0.09 in   Overcast
11:15 PM 62.6 °F 60.8 °F 94% 29.87 in 2.0 mi WSW 4.6 mph - N/A   Overcast
11:35 PM 62.6 °F 60.8 °F 94% 29.88 in 2.0 mi Variable 3.5 mph - N/A   Overcast
11:55 PM 60.8 °F 60.8 °F 100% 29.87 in 3.0 mi WSW 6.9 mph 17.3 mph 0.13 in   Overcast